Probability
0 0 0 0 0 0 0 0 0 0 0 0 0 0 0 0 0 0 0 2 5 7 7 8 9 11 13 17 17 14 9 5 4 2 1 1 1 1 0 0 0 0 0 0
0 0 0 0 0 0 0 0 0 0 0 0 0 0 0 0 0 0 0 2 5 7 7 8 8 10 13 16 16 14 10 7 5 3 2 1 1 0 0 0 0 0 0 0
0 0 0 0 0 0 0 0 0 1 0 0 0 0 0 0 0 0 1 2 4 6 7 8 8 10 14 16 15 13 12 10 8 6 4 3 2 1 0 0 0 0 0 0
0 0 0 0 0 0 0 0 0 0 0 0 0 0 0 0 0 1 2 2 3 5 6 7 8 10 14 16 16 13 13 12 9 7 6 5 4 2 1 0 0 0 0 0
0 0 0 0 0 0 0 0 0 0 0 0 0 0 0 0 0 1 3 4 4 4 4 5 7 10 13 15 16 15 13 12 9 7 6 6 6 3 1 0 0 0 0 0
0 0 0 0 0 0 0 0 0 0 0 0 0 0 0 0 0 1 2 4 4 3 3 3 5 9 12 14 16 16 15 12 10 7 6 6 5 4 2 1 0 0 0 0
0 0 0 0 0 0 0 0 0 0 0 0 0 0 0 0 0 0 1 2 2 2 3 3 4 7 11 13 15 15 13 11 10 8 6 5 4 3 3 2 1 1 1 0
0 0 0 0 0 0 0 0 0 0 0 0 0 0 0 0 0 1 1 0 1 1 2 3 4 6 10 12 13 13 11 10 10 8 5 2 2 2 2 2 2 2 2 1
0 0 0 0 0 0 0 0 0 0 0 0 0 0 0 0 1 2 2 1 0 0 1 3 4 6 8 10 12 13 12 10 10 8 4 2 2 2 2 2 2 3 3 3
0 0 0 0 0 0 0 0 0 0 0 0 0 0 0 0 1 2 2 1 0 0 1 3 5 5 6 7 11 14 15 12 9 6 4 2 1 1 1 1 1 2 3 3
0 0 0 0 0 0 0 0 0 0 0 0 0 0 0 0 0 1 1 0 0 1 1 2 4 4 4 6 10 15 16 13 9 7 4 2 1 0 0 1 1 2 3 3
0 0 0 0 0 0 0 0 0 0 0 0 0 0 0 0 0 1 1 1 1 2 3 3 3 3 4 6 9 13 14 11 9 7 5 3 1 0 0 0 1 2 3 3
0 0 0 0 0 0 0 0 0 0 0 0 0 0 0 0 0 1 2 2 2 3 4 5 4 4 4 5 8 11 11 9 8 6 5 4 2 0 0 0 0 1 2 3
0 0 0 0 0 0 0 0 0 0 0 0 0 0 0 0 0 1 2 3 3 3 4 6 5 4 4 5 8 10 10 8 6 4 4 4 3 1 1 1 1 1 1 2
0 0 0 0 0 0 0 0 0 0 0 0 0 0 0 0 0 0 1 1 2 2 3 4 3 2 3 6 8 9 9 8 6 4 3 4 4 3 1 2 3 2 1 1
0 0 0 0 0 0 0 0 0 0 0 0 0 0 0 0 0 0 0 0 1 1 1 1 1 1 3 5 6 7 7 7 5 4 3 4 5 4 3 3 3 3 2 1
0 0 0 0 0 0 0 0 0 0 0 0 0 0 0 0 0 0 0 0 0 0 0 0 1 2 3 4 6 7 7 6 5 4 4 5 6 6 5 4 3 3 3 3
0 0 0 0 0 0 0 0 0 0 0 0 0 0 0 0 0 0 0 0 0 0 0 0 1 3 3 4 5 7 8 7 6 5 5 6 7 7 6 4 3 3 3 3
0 0 0 0 0 0 0 0 0 0 0 0 1 1 0 0 0 0 0 0 0 0 1 1 2 3 3 3 5 8 9 9 7 6 6 6 7 7 6 5 4 4 3 3
0 0 0 0 0 0 0 0 0 0 0 0 1 1 1 1 1 1 0 0 0 1 2 3 3 4 3 3 4 7 8 8 7 6 6 6 6 6 6 6 6 5 4 3
0 0 0 0 0 0 0 0 0 0 0 0 1 1 1 2 2 2 1 0 0 1 2 3 4 4 3 2 3 5 6 5 6 6 6 6 6 6 6 6 6 5 4 3
0 0 0 0 0 0 0 0 0 0 0 0 0 1 2 3 3 2 1 0 0 1 1 2 4 4 4 3 4 4 4 4 4 5 6 6 6 6 6 6 5 4 3 3
0 0 0 0 0 0 0 0 0 0 0 0 1 2 3 3 3 2 1 1 0 0 0 1 3 4 5 5 5 4 4 3 3 4 5 6 6 6 5 4 4 3 3 3
0 0 0 0 0 0 0 0 0 0 0 1 2 3 3 3 3 3 2 2 1 1 1 2 3 4 4 4 3 3 3 2 2 2 3 4 4 4 4 3 3 3 3 3
0 0 1 1 1 0 0 0 0 0 0 1 3 4 3 3 3 3 3 3 3 2 3 3 3 3 1 1 1 1 1 1 1 1 1 3 3 3 3 3 3 3 3 3
0 0 1 2 1 0 0 0 0 0 0 1 3 4 3 3 3 3 3 3 3 3 3 3 3 1 0 0 0 0 0 0 0 0 0 1 3 3 3 3 3 3 3 2
Wind_Speed
3 4 3 6 6 5 3 2 3 5 3 1 3 4 5 2 2 3 3 5 6 6 4 4 5 6 6 6 6 5 5 4 4 3 2 2 1 0 0 0 1 1 1 1
4 3 7 4 4 3 2 2 3 5 2 2 2 4 3 3 3 4 4 5 6 5 4 4 4 5 6 6 6 6 5 4 4 3 2 2 1 1 1 0 1 1 1 1
5 6 3 4 3 3 4 5 4 4 3 2 0 4 4 2 0 1 2 3 4 7 7 6 5 6 6 6 7 6 5 5 4 3 3 2 2 2 1 1 0 1 0 1
4 5 3 3 4 5 5 6 5 3 0 3 1 3 6 4 3 3 3 2 4 5 6 6 6 6 6 6 6 5 5 5 4 4 4 4 3 2 1 1 1 1 0 0
5 3 4 4 5 6 6 2 3 2 2 1 1 1 7 2 4 5 4 4 4 5 5 5 5 6 5 5 5 5 5 4 4 4 4 4 2 1 1 1 1 0 1 0
5 3 4 5 2 4 3 4 5 5 4 1 3 3 6 4 5 4 3 4 4 4 4 4 4 4 3 4 4 5 5 4 4 4 4 4 3 2 2 1 1 1 0 0
3 3 2 2 1 1 4 5 3 4 3 5 2 2 8 6 4 5 5 4 5 4 4 4 5 5 5 5 5 5 6 4 4 4 3 3 4 3 3 3 2 2 1 1
2 4 4 3 5 5 4 8 7 5 5 4 1 5 7 4 3 2 2 2 3 4 4 4 5 5 5 6 6 6 5 4 4 3 2 2 2 2 2 2 2 2 2 2
4 5 3 2 2 7 5 4 5 6 2 1 4 5 6 1 2 1 1 2 2 3 4 4 4 4 5 5 6 7 6 4 3 3 3 2 2 2 1 1 1 1 1 1
5 3 3 2 3 3 5 7 5 5 5 3 4 4 5 4 3 2 1 2 2 2 3 3 4 3 3 4 4 5 6 6 5 4 3 3 2 1 1 1 1 1 1 1
3 3 3 1 2 3 3 3 4 4 4 5 3 6 5 6 5 4 3 3 3 3 4 4 3 3 3 3 3 5 5 4 4 3 3 3 2 1 1 1 1 1 1 1
2 4 1 3 2 1 4 5 6 5 3 4 3 7 3 2 2 2 2 2 2 2 3 3 3 3 3 3 3 4 4 4 4 4 3 3 2 2 1 1 1 1 1 1
3 4 2 3 3 3 2 2 3 5 4 4 4 7 2 2 1 0 1 1 1 1 3 3 2 3 3 3 3 3 3 4 4 4 4 3 2 2 2 2 1 1 1 1
4 3 5 7 6 2 1 2 3 5 4 4 6 7 5 4 2 2 1 1 1 2 3 3 3 3 3 3 3 3 3 4 4 4 4 4 3 3 3 2 1 1 1 1
3 2 2 3 3 2 2 3 4 4 6 6 6 6 6 4 4 3 1 1 1 1 2 4 4 3 3 2 2 2 2 2 3 4 4 4 4 3 2 1 1 1 1 2
3 2 0 1 1 2 2 3 4 3 3 3 3 5 4 3 1 1 1 2 2 2 3 3 3 4 4 4 3 2 2 2 3 3 3 3 3 2 2 2 1 1 1 1
1 3 2 2 2 1 3 3 3 2 1 2 4 5 3 3 2 3 3 3 4 4 3 3 3 4 4 4 3 3 3 2 2 3 3 3 3 2 2 2 2 2 1 1
4 3 3 1 1 4 4 1 2 2 1 0 2 3 3 4 4 3 2 3 4 4 4 3 3 3 2 2 2 2 2 2 2 2 3 2 3 3 2 2 2 2 1 1
4 5 3 3 2 3 1 1 0 1 2 2 2 3 4 4 3 3 2 2 4 4 4 4 3 2 2 2 2 2 2 2 2 3 3 3 3 3 3 3 2 1 2 1
4 3 4 3 3 4 3 4 3 1 2 3 3 3 3 2 2 5 4 3 3 3 2 2 2 1 1 2 2 2 2 3 3 3 3 3 3 4 4 4 2 2 2 2
3 3 2 2 2 3 4 4 2 3 4 4 3 3 2 2 4 5 4 3 3 2 1 2 2 2 2 2 3 2 2 3 3 2 2 3 3 4 4 3 2 3 2 2
2 2 1 1 1 4 3 3 2 3 4 3 3 3 3 3 4 3 2 2 1 1 0 1 2 1 1 2 3 2 3 2 2 2 2 2 2 3 3 3 3 3 3 3
1 3 3 4 4 2 1 1 2 2 3 3 3 4 3 3 3 2 2 1 1 1 1 0 2 1 1 2 3 3 2 1 1 2 2 2 2 2 2 4 4 3 3 3
2 1 1 1 3 3 3 3 3 3 4 4 3 2 2 2 2 1 1 1 2 2 1 1 1 2 1 1 1 2 1 1 1 2 3 3 3 2 2 2 3 3 3 3
2 1 0 2 3 4 4 4 5 5 4 3 3 2 1 0 1 1 1 1 1 2 2 1 0 1 1 1 1 1 1 2 2 2 2 2 2 3 2 2 2 3 3 4
2 2 3 4 4 3 5 5 4 3 2 2 2 2 2 1 1 1 1 1 1 1 2 2 1 1 1 1 1 1 1 2 2 2 1 2 2 2 2 2 1 1 2 3
Wind_Direction
78 85 202 212 192 183 167 183 257 263 252 174 232 263 278 249 209 217 218 202 196 198 194 168 160 158 146 147 149 153 153 154 145 139 144 143 159 158 135 166 159 155 158 146
56 250 231 198 178 173 182 228 267 289 306 177 240 283 280 227 215 215 217 211 195 184 175 171 161 158 159 162 163 164 166 163 160 159 155 143 141 152 149 67 62 92 125 131
184 234 192 159 172 184 216 203 225 248 337 11 70 324 314 312 297 283 274 212 193 186 185 183 174 169 164 168 174 173 174 164 160 143 123 104 77 68 59 37 11 336 87 126
225 249 183 177 205 179 242 221 202 216 76 299 44 284 292 298 310 289 267 212 196 187 186 186 177 172 177 180 170 164 161 154 151 142 145 148 150 161 195 198 217 302 3 85
230 210 182 207 222 180 219 203 176 184 160 326 343 191 287 308 286 275 245 212 197 187 183 185 184 178 173 164 156 155 147 145 147 148 153 152 144 170 158 146 146 352 349 24
239 221 193 210 219 175 164 72 61 53 76 278 245 176 278 251 240 263 241 206 190 174 166 169 158 144 145 145 146 146 145 149 149 149 147 153 154 155 147 160 174 212 276 288
302 288 247 180 122 52 96 93 41 9 17 247 239 192 248 251 241 234 227 210 186 168 158 156 155 155 157 156 155 153 152 153 155 155 154 169 173 174 183 192 191 192 208 240
202 280 245 193 179 176 168 144 159 190 213 263 285 229 250 262 275 262 216 177 162 163 162 167 172 167 164 164 159 155 156 153 153 155 165 166 162 171 193 200 192 198 208 215
184 249 272 228 183 144 144 170 165 137 156 220 264 272 295 284 321 329 142 132 171 176 172 169 162 161 162 163 166 163 158 153 161 166 161 147 143 156 181 197 197 200 203 200
166 234 281 289 69 43 140 144 106 124 153 226 268 254 244 254 257 264 216 186 197 178 169 159 151 148 149 158 164 160 161 167 173 177 168 154 162 172 164 168 195 218 224 214
143 171 306 40 146 190 113 106 114 123 157 163 235 264 229 216 214 211 227 216 204 184 176 169 156 153 139 132 151 167 169 167 168 170 162 150 160 157 144 192 216 212 204 194
146 129 232 262 266 188 148 160 149 153 206 178 184 263 287 223 205 190 215 224 210 177 169 162 156 146 146 160 173 177 174 171 179 176 162 156 156 156 172 211 238 216 209 205
134 117 94 340 335 18 89 141 147 133 128 160 183 258 319 23 22 267 207 222 194 160 154 149 155 165 177 185 192 179 178 183 185 173 166 164 170 178 201 218 227 230 209 201
121 124 169 196 215 200 215 197 162 138 161 202 218 243 292 313 303 294 264 219 203 200 173 166 178 187 188 192 195 190 188 188 180 174 176 184 196 202 207 208 200 207 201 178
99 138 212 232 225 192 213 218 191 184 191 198 228 232 257 260 251 246 215 184 202 228 198 188 191 195 200 205 208 197 196 189 181 177 187 197 198 202 193 175 167 147 155 166
68 137 173 297 264 201 244 252 210 208 204 220 240 264 281 285 247 236 230 200 212 227 224 212 201 195 202 206 208 201 199 191 184 189 202 202 185 188 181 166 154 129 113 129
79 133 129 250 286 4 263 243 199 175 174 180 225 258 300 306 269 231 228 228 230 231 237 223 220 213 208 210 198 193 201 195 188 196 197 193 180 181 181 164 134 132 124 118
150 131 139 170 93 223 238 41 100 141 140 19 269 287 283 278 273 259 248 235 232 232 231 228 223 227 208 189 187 180 167 175 194 196 191 194 178 173 164 157 154 144 138 149
153 141 129 137 193 257 299 358 37 191 259 346 319 323 327 332 344 315 309 256 227 224 225 220 212 209 187 168 158 139 148 181 200 213 204 197 186 176 174 177 176 162 156 145
70 95 118 139 176 228 274 309 305 155 270 338 337 312 317 11 327 286 308 287 264 255 224 201 177 143 159 164 142 147 180 195 214 224 217 202 189 180 184 184 173 162 164 159
40 38 97 163 206 257 305 323 41 132 269 314 302 287 269 245 248 272 291 295 268 249 233 172 155 159 185 161 140 159 212 225 229 220 207 199 194 189 182 176 168 159 157 152
146 135 169 133 179 265 335 44 111 249 293 305 290 281 282 289 304 299 292 286 299 323 353 147 146 167 189 167 158 187 234 237 213 198 193 193 189 192 171 160 164 162 160 160
176 191 192 188 205 265 279 262 275 286 298 297 287 295 301 308 309 320 329 319 337 12 355 107 140 146 211 177 171 197 238 200 183 196 194 190 182 180 167 170 173 168 169 173
321 13 124 278 290 308 301 322 320 313 297 288 281 294 302 302 299 322 338 354 1 356 357 357 154 171 217 222 213 219 219 170 169 196 196 182 168 167 167 169 173 172 178 179
279 312 337 275 298 328 324 317 310 317 327 348 0 355 322 37 354 348 346 1 351 346 351 1 38 204 242 255 272 259 197 156 172 193 186 172 167 165 174 174 189 191 195 191
236 201 193 240 252 246 281 294 306 324 328 334 7 5 7 56 14 358 354 333 349 353 353 5 353 307 298 293 278 278 220 166 166 173 170 165 179 180 174 170 183 199 186 189